Time,TemperatureF,DewpointF,PressureIn,WindDirection,WindDirectionDegrees,WindSpeedMPH,WindSpeedGustMPH,Humidity,HourlyPrecipIn,Conditions,Clouds,dailyrainin,SolarRadiationWatts/m^2,SoftwareType,DateUTC
2013-07-10 00:01:00,83.4,75.0,30.01,SW,223,0.0,-999.0,76,-99.99,,,0.00,0,weatherlink.com 1.10,2013-07-10 05:01:00,
2013-07-10 00:17:00,82.2,72.0,30.01,SW,223,0.0,-999.0,70,-99.99,,,0.00,0,weatherlink.com 1.10,2013-07-10 05:17:00,
2013-07-10 00:32:00,82.1,71.0,30.01,SW,223,0.0,-999.0,70,-99.99,,,0.00,0,weatherlink.com 1.10,2013-07-10 05:32:00,
2013-07-10 00:47:00,82.0,72.0,30.01,SW,223,0.0,-999.0,72,-99.99,,,0.00,0,weatherlink.com 1.10,2013-07-10 05:47:00,
2013-07-10 01:02:00,81.3,75.0,30.00,SW,223,0.0,-999.0,80,-99.99,,,0.00,0,weatherlink.com 1.10,2013-07-10 06:02:00,
2013-07-10 01:17:00,80.6,74.0,30.01,SW,223,0.0,-999.0,79,-99.99,,,0.00,0,weatherlink.com 1.10,2013-07-10 06:17:00,
2013-07-10 01:32:00,80.1,74.0,30.01,SW,223,0.0,-999.0,82,-99.99,,,0.00,0,weatherlink.com 1.10,2013-07-10 06:32:00,
2013-07-10 01:47:00,79.6,72.0,30.01,SW,223,0.0,-999.0,78,-99.99,,,0.00,0,weatherlink.com 1.10,2013-07-10 06:47:00,
2013-07-10 02:02:00,79.9,73.0,30.00,SW,223,0.0,-999.0,80,-99.99,,,0.00,0,weatherlink.com 1.10,2013-07-10 07:02:00,
2013-07-10 02:17:00,79.7,73.0,30.00,SW,223,0.0,-999.0,79,-99.99,,,0.00,0,weatherlink.com 1.10,2013-07-10 07:17:00,
2013-07-10 02:32:00,79.5,73.0,30.00,SW,223,0.0,-999.0,79,-99.99,,,0.00,0,weatherlink.com 1.10,2013-07-10 07:32:00,
2013-07-10 02:47:00,79.4,74.0,30.00,SW,223,0.0,-999.0,83,-99.99,,,0.00,0,weatherlink.com 1.10,2013-07-10 07:47:00,
2013-07-10 03:02:00,78.9,70.0,30.00,SW,223,0.0,-999.0,74,-99.99,,,0.00,0,weatherlink.com 1.10,2013-07-10 08:02:00,
2013-07-10 03:17:00,79.3,74.0,30.00,SW,223,0.0,-999.0,84,-99.99,,,0.00,0,weatherlink.com 1.10,2013-07-10 08:17:00,
2013-07-10 03:32:00,78.8,71.0,29.99,SW,223,0.0,-999.0,78,-99.99,,,0.00,0,weatherlink.com 1.10,2013-07-10 08:32:00,
2013-07-10 03:47:00,79.1,74.0,29.99,SW,223,0.0,-999.0,83,-99.99,,,0.00,0,weatherlink.com 1.10,2013-07-10 08:47:00,
2013-07-10 04:02:00,78.1,73.0,29.99,SW,223,0.0,-999.0,84,-99.99,,,0.00,0,weatherlink.com 1.10,2013-07-10 09:02:00,
2013-07-10 04:17:00,78.1,70.0,29.99,SW,223,0.0,-999.0,76,-99.99,,,0.00,0,weatherlink.com 1.10,2013-07-10 09:17:00,
2013-07-10 04:32:00,79.6,71.0,29.99,SW,223,0.0,-999.0,75,-99.99,,,0.00,0,weatherlink.com 1.10,2013-07-10 09:32:00,
2013-07-10 04:47:00,78.7,73.0,29.99,SW,223,0.0,-999.0,82,-99.99,,,0.00,0,weatherlink.com 1.10,2013-07-10 09:47:00,
2013-07-10 05:02:00,77.5,72.0,30.00,SW,223,0.0,-999.0,84,-99.99,,,0.00,0,weatherlink.com 1.10,2013-07-10 10:02:00,
2013-07-10 05:17:00,76.9,71.0,30.01,SW,223,0.0,-999.0,82,-99.99,,,0.00,0,weatherlink.com 1.10,2013-07-10 10:17:00,
2013-07-10 05:32:00,77.3,72.0,30.01,SW,223,0.0,-999.0,84,-99.99,,,0.00,0,weatherlink.com 1.10,2013-07-10 10:32:00,
2013-07-10 05:47:00,77.2,72.0,30.01,SW,223,0.0,-999.0,84,-99.99,,,0.00,0,weatherlink.com 1.10,2013-07-10 10:47:00,
2013-07-10 06:01:00,77.2,71.0,30.01,SW,223,0.0,-999.0,81,-99.99,,,0.00,0,weatherlink.com 1.10,2013-07-10 11:01:00,
2013-07-10 06:16:00,77.5,72.0,30.01,SW,223,0.0,-999.0,83,-99.99,,,0.00,5,weatherlink.com 1.10,2013-07-10 11:16:00,
2013-07-10 06:32:00,77.4,72.0,30.01,SW,223,0.0,-999.0,83,-99.99,,,0.00,16,weatherlink.com 1.10,2013-07-10 11:32:00,
2013-07-10 06:48:00,77.5,71.0,30.01,SW,223,0.0,-999.0,79,-99.99,,,0.00,26,weatherlink.com 1.10,2013-07-10 11:48:00,
2013-07-10 07:02:00,78.3,71.0,30.02,SW,223,0.0,-999.0,78,-99.99,,,0.00,42,weatherlink.com 1.10,2013-07-10 12:02:00,
2013-07-10 07:17:00,78.4,73.0,30.04,SW,223,2.0,-999.0,84,-99.99,,,0.00,56,weatherlink.com 1.10,2013-07-10 12:17:00,
2013-07-10 07:32:00,77.8,73.0,30.04,SW,223,0.0,-999.0,85,-99.99,,,0.00,74,weatherlink.com 1.10,2013-07-10 12:32:00,
2013-07-10 07:47:00,77.9,73.0,30.05,SW,223,2.0,-999.0,84,-99.99,,,0.00,128,weatherlink.com 1.10,2013-07-10 12:47:00,
2013-07-10 08:02:00,78.5,72.0,30.05,SW,223,0.0,-999.0,81,-99.99,,,0.00,251,weatherlink.com 1.10,2013-07-10 13:02:00,
2013-07-10 08:17:00,80.2,71.0,30.04,SW,223,0.0,-999.0,74,-99.99,,,0.00,114,weatherlink.com 1.10,2013-07-10 13:17:00,
2013-07-10 08:32:00,81.5,73.0,30.04,SW,223,0.0,-999.0,74,-99.99,,,0.00,93,weatherlink.com 1.10,2013-07-10 13:32:00,
2013-07-10 08:47:00,81.7,72.0,30.04,SW,223,0.0,-999.0,73,-99.99,,,0.00,137,weatherlink.com 1.10,2013-07-10 13:47:00,
2013-07-10 09:03:00,82.1,72.0,30.04,SW,223,0.0,-999.0,72,-99.99,,,0.00,197,weatherlink.com 1.10,2013-07-10 14:03:00,
2013-07-10 09:18:00,82.9,73.0,30.04,SW,223,0.0,-999.0,72,-99.99,,,0.00,209,weatherlink.com 1.10,2013-07-10 14:18:00,
2013-07-10 09:33:00,83.2,72.0,30.03,SW,223,0.0,-999.0,70,-99.99,,,0.00,276,weatherlink.com 1.10,2013-07-10 14:33:00,
2013-07-10 10:03:00,85.2,73.0,30.03,SW,223,0.0,-999.0,67,-99.99,,,0.00,359,weatherlink.com 1.10,2013-07-10 15:03:00,
2013-07-10 10:18:00,86.1,73.0,30.03,SW,223,0.0,-999.0,64,-99.99,,,0.00,531,weatherlink.com 1.10,2013-07-10 15:18:00,
2013-07-10 10:33:00,86.9,73.0,30.03,SW,223,0.0,-999.0,64,-99.99,,,0.00,290,weatherlink.com 1.10,2013-07-10 15:33:00,
2013-07-10 10:48:00,87.0,73.0,30.03,SW,223,0.0,-999.0,63,-99.99,,,0.00,318,weatherlink.com 1.10,2013-07-10 15:48:00,
2013-07-10 11:03:00,87.9,73.0,30.03,SW,223,0.0,-999.0,62,-99.99,,,0.00,424,weatherlink.com 1.10,2013-07-10 16:03:00,
2013-07-10 11:18:00,88.7,74.0,30.02,SW,223,0.0,-999.0,61,-99.99,,,0.00,485,weatherlink.com 1.10,2013-07-10 16:18:00,
2013-07-10 11:33:00,89.7,73.0,30.03,SW,223,0.0,-999.0,59,-99.99,,,0.00,722,weatherlink.com 1.10,2013-07-10 16:33:00,
2013-07-10 11:48:00,91.3,74.0,30.02,SW,223,0.0,-999.0,58,-99.99,,,0.00,888,weatherlink.com 1.10,2013-07-10 16:48:00,
2013-07-10 12:03:00,92.6,74.0,30.02,SW,223,0.0,-999.0,55,-99.99,,,0.00,939,weatherlink.com 1.10,2013-07-10 17:03:00,
2013-07-10 12:18:00,93.1,73.0,30.01,SW,223,0.0,-999.0,52,-99.99,,,0.00,888,weatherlink.com 1.10,2013-07-10 17:18:00,
2013-07-10 12:33:00,92.8,74.0,30.01,SW,223,5.0,-999.0,54,-99.99,,,0.00,503,weatherlink.com 1.10,2013-07-10 17:33:00,
2013-07-10 12:48:00,90.9,73.0,30.01,SW,223,3.0,-999.0,56,-99.99,,,0.00,369,weatherlink.com 1.10,2013-07-10 17:48:00,
2013-07-10 13:04:00,90.8,72.0,30.01,SW,223,0.0,-999.0,54,-99.99,,,0.00,643,weatherlink.com 1.10,2013-07-10 18:04:00,
2013-07-10 13:18:00,91.9,71.0,30.00,SW,223,5.0,-999.0,51,-99.99,,,0.00,831,weatherlink.com 1.10,2013-07-10 18:18:00,
2013-07-10 13:33:00,92.0,71.0,30.00,SW,223,0.0,-999.0,51,-99.99,,,0.00,921,weatherlink.com 1.10,2013-07-10 18:33:00,
2013-07-10 13:49:00,92.6,71.0,30.00,SW,223,3.0,-999.0,50,-99.99,,,0.00,935,weatherlink.com 1.10,2013-07-10 18:49:00,
2013-07-10 14:03:00,93.5,70.0,30.00,SW,223,0.0,-999.0,47,-99.99,,,0.00,854,weatherlink.com 1.10,2013-07-10 19:03:00,
2013-07-10 14:18:00,93.9,71.0,29.99,SW,223,6.0,-999.0,48,-99.99,,,0.00,993,weatherlink.com 1.10,2013-07-10 19:18:00,
2013-07-10 14:33:00,94.2,70.0,29.98,SW,223,7.0,-999.0,46,-99.99,,,0.00,585,weatherlink.com 1.10,2013-07-10 19:33:00,
2013-07-10 14:49:00,95.5,70.0,29.97,West,270,0.0,-999.0,44,-99.99,,,0.00,466,weatherlink.com 1.10,2013-07-10 19:49:00,
2013-07-10 15:03:00,95.9,71.0,29.96,West,270,0.0,-999.0,45,-99.99,,,0.00,942,weatherlink.com 1.10,2013-07-10 20:03:00,
2013-07-10 15:19:00,95.8,70.0,29.96,NW,304,0.0,-999.0,43,-99.99,,,0.00,364,weatherlink.com 1.10,2013-07-10 20:19:00,
2013-07-10 15:34:00,95.1,71.0,29.96,NW,304,8.0,-999.0,46,-99.99,,,0.00,369,weatherlink.com 1.10,2013-07-10 20:34:00,
2013-07-10 15:49:00,95.1,71.0,29.95,NNW,348,5.0,-999.0,45,-99.99,,,0.00,309,weatherlink.com 1.10,2013-07-10 20:49:00,
2013-07-10 16:04:00,95.3,71.0,29.94,NNW,340,9.0,-999.0,45,-99.99,,,0.00,756,weatherlink.com 1.10,2013-07-10 21:04:00,
2013-07-10 16:19:00,95.5,70.0,29.93,NNW,336,7.0,-999.0,44,-99.99,,,0.00,575,weatherlink.com 1.10,2013-07-10 21:19:00,
2013-07-10 16:34:00,95.2,71.0,29.92,NNW,337,7.0,-999.0,45,-99.99,,,0.00,645,weatherlink.com 1.10,2013-07-10 21:34:00,
2013-07-10 16:49:00,95.7,71.0,29.92,NNW,338,0.0,-999.0,45,-99.99,,,0.00,612,weatherlink.com 1.10,2013-07-10 21:49:00,
2013-07-10 17:04:00,95.9,70.0,29.91,NNW,339,0.0,-999.0,43,-99.99,,,0.00,292,weatherlink.com 1.10,2013-07-10 22:04:00,
2013-07-10 17:19:00,94.8,70.0,29.90,NNW,339,0.0,-999.0,44,-99.99,,,0.00,69,weatherlink.com 1.10,2013-07-10 22:19:00,
2013-07-10 17:34:00,94.7,71.0,29.91,NNW,339,0.0,-999.0,47,-99.99,,,0.00,95,weatherlink.com 1.10,2013-07-10 22:34:00,
2013-07-10 17:49:00,94.2,72.0,29.91,NNW,339,0.0,-999.0,48,-99.99,,,0.00,111,weatherlink.com 1.10,2013-07-10 22:49:00,
2013-07-10 18:04:00,93.8,72.0,29.91,NNW,339,0.0,-999.0,49,-99.99,,,0.00,98,weatherlink.com 1.10,2013-07-10 23:04:00,
2013-07-10 18:19:00,93.4,72.0,29.91,NNW,339,0.0,-999.0,50,-99.99,,,0.00,72,weatherlink.com 1.10,2013-07-10 23:19:00,
2013-07-10 18:34:00,92.8,72.0,29.90,NNW,339,0.0,-999.0,51,-99.99,,,0.00,56,weatherlink.com 1.10,2013-07-10 23:34:00,
2013-07-10 18:49:00,91.9,72.0,29.91,NNW,339,0.0,-999.0,53,-99.99,,,0.00,56,weatherlink.com 1.10,2013-07-10 23:49:00,
2013-07-10 19:04:00,91.7,72.0,29.93,NNW,339,0.0,-999.0,53,-99.99,,,0.00,67,weatherlink.com 1.10,2013-07-11 00:04:00,
2013-07-10 19:19:00,91.1,73.0,29.93,NW,312,0.0,-999.0,55,-99.99,,,0.00,77,weatherlink.com 1.10,2013-07-11 00:19:00,
2013-07-10 19:34:00,89.5,73.0,29.93,WSW,255,3.0,-999.0,58,-99.99,,,0.00,77,weatherlink.com 1.10,2013-07-11 00:34:00,
2013-07-10 19:49:00,88.0,73.0,29.93,WSW,254,3.0,-999.0,61,-99.99,,,0.00,63,weatherlink.com 1.10,2013-07-11 00:49:00,
2013-07-10 20:04:00,87.1,72.0,29.94,WSW,254,1.0,-999.0,62,-99.99,,,0.00,37,weatherlink.com 1.10,2013-07-11 01:04:00,
2013-07-10 20:19:00,86.0,71.0,29.94,WSW,254,0.0,-999.0,62,-99.99,,,0.00,19,weatherlink.com 1.10,2013-07-11 01:19:00,
2013-07-10 20:34:00,85.1,71.0,29.94,WSW,254,0.0,-999.0,63,-99.99,,,0.00,11,weatherlink.com 1.10,2013-07-11 01:34:00,
2013-07-10 20:49:00,84.3,71.0,29.94,WSW,254,0.0,-999.0,65,-99.99,,,0.00,0,weatherlink.com 1.10,2013-07-11 01:49:00,
2013-07-10 21:04:00,83.5,71.0,29.94,WSW,254,0.0,-999.0,67,-99.99,,,0.00,0,weatherlink.com 1.10,2013-07-11 02:04:00,
2013-07-10 21:19:00,82.6,71.0,29.95,WSW,254,0.0,-999.0,67,-99.99,,,0.00,0,weatherlink.com 1.10,2013-07-11 02:19:00,
2013-07-10 21:34:00,82.1,70.0,29.97,WSW,254,0.0,-999.0,67,-99.99,,,0.00,0,weatherlink.com 1.10,2013-07-11 02:34:00,
2013-07-10 21:49:00,81.6,70.0,29.98,WSW,254,0.0,-999.0,68,-99.99,,,0.00,0,weatherlink.com 1.10,2013-07-11 02:49:00,
2013-07-10 22:04:00,80.9,70.0,29.99,WSW,254,0.0,-999.0,69,-99.99,,,0.00,0,weatherlink.com 1.10,2013-07-11 03:04:00,
2013-07-10 22:19:00,80.4,70.0,29.98,WSW,254,0.0,-999.0,70,-99.99,,,0.00,0,weatherlink.com 1.10,2013-07-11 03:19:00,
2013-07-10 22:34:00,80.0,70.0,29.98,WSW,254,0.0,-999.0,71,-99.99,,,0.00,0,weatherlink.com 1.10,2013-07-11 03:34:00,
2013-07-10 22:49:00,79.7,70.0,29.98,WSW,254,0.0,-999.0,73,-99.99,,,0.00,0,weatherlink.com 1.10,2013-07-11 03:49:00,
2013-07-10 23:04:00,79.4,70.0,29.98,WSW,254,0.0,-999.0,73,-99.99,,,0.00,0,weatherlink.com 1.10,2013-07-11 04:04:00,
2013-07-10 23:19:00,79.2,70.0,29.98,WSW,254,0.0,-999.0,73,-99.99,,,0.00,0,weatherlink.com 1.10,2013-07-11 04:19:00,
2013-07-10 23:34:00,79.0,70.0,29.97,WSW,254,0.0,-999.0,74,-99.99,,,0.00,0,weatherlink.com 1.10,2013-07-11 04:34:00,
2013-07-10 23:49:00,78.8,70.0,29.98,WSW,254,0.0,-999.0,74,-99.99,,,0.00,0,weatherlink.com 1.10,2013-07-11 04:49:00,